Theta_e
314 314 315 317 318 318 319 320 323 322 321 322 328 327 325 324 321 320 322 322 322 321 324 326 317 316 315 319 320 321 324 329 328 328 325 324 325 322 323 328 328 329 331 334 334
314 313 313 315 317 318 318 319 321 323 322 321 326 325 325 324 319 322 322 322 321 322 325 321 320 316 317 320 321 324 326 328 325 321 320 323 324 322 324 326 328 329 335 335 335
313 313 313 313 314 317 318 317 320 322 322 322 324 325 325 323 320 323 322 321 321 321 323 327 318 321 320 320 321 323 325 327 323 319 319 319 320 322 323 324 325 328 334 334 333
313 312 312 313 314 314 317 317 316 321 322 322 324 322 322 321 327 321 322 322 320 320 321 327 322 324 324 322 322 323 324 324 319 317 318 319 318 319 320 322 320 323 333 332 333
312 311 312 313 314 314 314 315 314 317 320 322 323 320 319 320 323 320 322 322 321 320 321 327 327 322 325 323 322 324 326 327 318 316 317 317 318 318 318 319 320 329 333 331 332
312 312 312 313 312 313 314 314 314 311 317 320 324 322 319 323 321 321 319 321 321 320 321 324 328 325 324 324 322 322 323 321 317 318 318 319 320 317 319 318 320 329 330 331 331
311 311 310 311 312 313 313 314 313 312 309 317 322 322 321 322 320 322 319 320 321 320 322 323 326 325 325 326 322 322 323 320 318 318 320 319 322 318 317 319 320 324 328 330 331
310 310 309 311 312 312 313 314 314 313 310 311 319 322 323 320 320 321 320 321 321 321 322 323 323 322 323 321 321 322 324 324 322 321 319 321 326 325 321 317 319 320 324 331 331
309 309 308 309 311 310 310 314 315 315 312 314 316 316 320 320 320 321 320 321 321 320 322 323 323 324 322 326 329 326 329 327 328 323 321 319 327 325 322 317 318 318 321 328 331
308 308 308 309 310 310 309 312 316 315 314 314 315 316 315 321 320 321 320 321 319 320 322 322 322 324 325 329 336 333 330 329 328 327 323 322 320 322 317 316 318 318 318 325 328
308 308 308 309 308 308 311 315 314 314 314 315 314 314 316 319 320 320 320 319 319 322 325 324 326 327 326 328 330 330 330 331 328 322 322 322 324 324 322 315 315 316 316 321 328
307 307 308 308 308 309 312 314 313 314 316 314 314 314 314 318 322 320 319 321 323 325 323 325 328 324 324 326 328 330 330 331 329 316 317 321 323 322 322 323 321 315 315 316 321
305 306 308 307 308 309 311 312 313 314 316 316 314 314 315 317 322 321 320 321 323 324 324 324 322 323 325 325 328 330 331 329 331 321 321 322 324 325 325 321 318 317 315 315 317
307 308 308 308 309 308 310 311 312 313 316 317 317 315 314 314 323 319 320 321 323 324 323 322 320 323 323 325 325 330 328 328 328 328 332 322 328 327 326 326 323 318 313 312 313
308 308 308 308 309 310 309 311 312 312 317 315 315 313 313 314 321 320 319 320 323 322 323 324 321 325 326 326 326 328 326 327 322 325 325 328 327 325 324 325 324 323 317 314 312
306 306 306 307 308 309 310 311 312 317 318 316 317 316 316 316 321 320 321 319 320 322 322 320 317 322 325 325 324 319 320 320 320 325 330 327 327 326 325 323 323 323 320 318 315
304 304 306 307 307 308 310 311 313 316 311 313 317 318 317 317 322 322 323 322 324 326 324 321 323 316 320 324 318 321 325 326 330 329 330 319 325 326 322 320 321 320 317 315 316
304 303 305 306 306 306 307 312 312 313 314 310 314 320 319 317 322 323 323 322 321 320 322 324 323 319 321 323 322 324 324 323 326 327 324 312 322 323 322 319 314 313 314 314 310
304 305 305 305 306 306 306 306 312 311 312 313 316 321 321 323 322 323 321 321 322 318 320 321 321 316 320 318 320 322 326 320 318 308 318 318 317 317 317 314 311 310 311 312 310
303 304 304 304 304 305 304 305 308 307 309 315 320 321 320 320 322 323 322 321 321 318 316 317 320 315 311 318 316 321 319 324 322 321 323 321 321 320 316 316 314 312 312 311 310
302 303 304 304 304 304 305 305 305 306 308 311 319 321 317 318 319 322 322 322 320 319 316 316 318 317 315 320 320 320 322 322 322 322 322 322 318 312 316 314 313 307 307 308 308
303 303 304 304 304 305 305 305 304 306 307 309 312 318 316 318 321 322 321 322 319 318 318 316 316 316 317 312 316 318 322 320 324 322 319 319 318 310 308 308 308 308 308 309 309
299 302 301 303 305 305 306 305 306 306 308 308 310 318 317 320 322 321 320 318 318 318 317 315 316 318 316 312 311 319 319 320 317 316 318 318 317 311 307 308 308 307 308 308 310
301 304 301 301 303 305 306 306 307 307 307 308 307 318 318 320 320 321 321 319 318 318 315 314 315 316 318 318 314 317 318 318 319 318 318 319 317 309 308 309 307 308 309 309 311
303 303 301 303 304 305 308 308 309 309 309 311 312 319 319 321 321 321 317 319 318 315 313 315 314 315 314 315 315 316 318 319 320 319 319 317 318 315 314 313 313 311 313 314 312
301 301 298 303 303 303 305 306 308 310 312 311 313 319 318 320 319 320 319 319 319 313 312 313 314 312 308 314 315 315 316 317 318 318 318 316 316 314 314 314 313 313 312 311 310
298 297 300 303 303 302 306 306 308 309 310 311 312 318 319 318 317 315 316 315 317 317 315 314 312 315 311 310 311 311 314 315 316 316 317 317 316 311 311 313 313 311 311 311 310
Wind_Speed
26 26 24 23 22 20 19 18 20 20 21 27 14 17 14 12 13 14 13 6 14 5 13 9 4 2 2 3 3 5 2 4 8 5 3 6 4 3 3 5 2 3 6 14 28
27 26 26 24 25 22 21 18 20 21 21 22 21 12 11 10 14 22 8 17 11 8 12 11 6 6 2 1 2 3 4 8 5 6 5 4 3 8 3 6 4 7 15 22 26
28 27 26 26 27 25 22 21 19 21 22 23 17 16 10 7 8 18 23 15 17 14 9 13 8 4 3 1 5 5 8 7 5 6 3 4 3 1 4 5 6 12 13 17 21
27 28 28 28 28 29 27 23 22 20 23 25 28 23 10 11 6 6 26 27 17 15 10 14 10 6 2 4 5 3 10 9 6 2 2 5 3 2 5 1 4 4 20 20 15
29 29 28 28 28 28 29 28 23 25 20 25 29 24 13 4 10 9 11 22 21 17 17 12 12 8 9 8 6 9 8 8 9 5 3 2 4 3 4 4 6 14 18 15 17
30 30 29 30 29 29 31 31 27 21 24 21 28 29 14 22 18 9 10 18 18 21 20 17 9 13 7 6 8 7 11 4 6 6 3 4 4 1 2 3 8 11 10 12 14
33 31 29 28 28 30 31 31 29 25 21 23 24 37 10 28 19 18 10 22 23 24 15 19 6 4 3 2 3 1 6 4 6 5 5 3 7 6 9 4 7 8 10 11 15
31 30 27 27 27 25 31 31 30 27 27 21 16 30 11 37 18 24 18 18 19 20 18 16 9 5 2 3 1 3 3 6 8 8 4 5 10 7 10 9 8 10 8 11 11
31 30 27 27 30 25 25 32 29 25 20 14 16 6 5 17 29 26 28 24 22 18 18 16 16 4 3 5 2 3 4 8 5 14 6 8 1 11 8 7 7 8 9 10 11
29 29 29 26 25 25 23 28 26 20 16 12 12 5 3 8 25 28 28 31 18 16 5 5 3 6 6 9 9 5 6 6 12 7 11 7 7 9 2 6 7 7 8 10 9
28 28 28 26 23 23 22 20 7 6 13 10 11 10 2 13 27 24 30 27 22 14 11 12 8 17 16 14 9 10 11 11 8 7 6 9 9 11 9 8 8 7 8 9 13
28 28 31 28 24 21 24 9 22 5 10 13 14 22 26 11 11 21 36 14 18 17 16 6 21 15 14 14 10 6 11 11 3 7 3 6 10 9 10 9 8 11 10 8 8
28 29 29 28 22 18 21 14 24 11 4 11 22 20 9 17 16 25 26 16 26 22 25 18 12 15 17 17 15 10 10 9 6 4 2 5 9 10 9 9 9 9 9 9 9
28 28 28 27 18 21 18 21 25 19 7 8 17 13 8 3 14 35 35 22 10 25 23 14 15 22 20 19 14 17 4 5 5 3 2 2 5 4 5 17 15 13 9 9 10
28 27 28 34 14 17 11 21 20 5 7 13 12 12 23 14 11 27 44 10 23 18 13 11 14 23 20 19 17 3 9 5 4 4 4 4 3 4 6 5 7 16 12 12 11
26 24 23 23 5 15 21 26 19 9 13 11 13 19 22 22 19 28 25 4 16 17 11 4 4 14 12 12 12 12 10 8 5 3 5 7 7 5 6 8 5 6 12 15 13
23 22 23 14 6 10 16 13 7 10 6 6 11 24 37 27 19 28 23 14 12 15 12 6 4 3 6 11 18 6 10 3 2 3 7 5 9 11 10 11 3 4 5 7 12
19 21 21 15 8 18 8 7 11 10 6 4 7 21 31 31 25 32 24 15 18 17 14 14 10 8 8 12 8 13 13 5 7 5 4 2 7 5 14 5 4 5 8 4 5
19 15 9 16 13 17 6 9 5 7 9 8 10 23 9 20 12 24 25 22 17 26 14 15 6 6 9 6 13 4 6 3 5 1 3 5 6 7 7 8 6 8 6 7 6
16 9 8 14 21 13 5 12 7 8 4 12 14 14 13 20 12 22 28 27 18 17 7 11 7 3 1 9 2 9 10 4 2 6 5 5 5 5 6 10 10 9 7 5 3
11 4 12 23 19 3 7 6 10 14 5 6 13 11 5 14 14 25 26 20 24 25 9 18 7 3 5 8 13 8 8 5 5 2 4 0 5 2 9 9 8 8 7 6 7
4 4 19 32 5 3 10 8 14 14 9 7 10 17 14 21 22 14 21 20 25 26 20 3 6 9 4 1 7 8 12 6 5 5 2 3 5 3 8 8 9 8 7 6 6
6 2 6 12 7 8 5 16 11 10 10 6 7 17 17 20 12 13 18 9 23 22 21 10 7 9 3 5 3 17 16 16 5 3 6 5 5 5 10 8 6 8 6 4 4
4 4 2 3 0 9 7 8 14 13 20 15 14 18 22 24 10 19 17 14 21 20 13 7 7 6 14 17 9 9 14 13 5 3 5 12 8 6 8 8 8 7 7 6 4
2 4 2 6 8 9 9 6 20 11 12 13 10 25 27 16 13 18 13 16 20 15 8 6 5 5 5 15 16 25 26 22 20 24 12 21 19 12 6 5 6 6 5 2 4
4 3 1 2 5 13 14 11 16 16 7 11 20 26 26 15 10 28 23 23 30 14 16 5 5 5 6 6 16 21 20 23 29 28 16 6 11 7 4 4 5 4 5 5 5
3 2 2 6 4 6 6 11 15 15 12 21 20 26 29 30 18 15 9 8 19 24 15 7 6 4 2 4 8 1 27 27 25 21 24 13 14 7 6 5 5 6 5 5 5
Wind_Direction
225 226 227 231 231 227 228 225 225 226 221 226 200 190 190 200 229 221 215 205 205 217 173 168 175 127 94 244 272 334 295 246 229 270 67 118 146 342 318 116 16 61 36 124 157
222 225 228 226 229 226 226 221 220 221 220 217 226 190 188 190 233 231 230 216 209 189 171 170 170 154 175 252 191 124 275 254 70 39 50 89 271 137 179 158 154 107 90 121 151
220 222 224 225 228 226 222 223 218 217 215 210 199 180 182 173 273 249 227 214 218 196 195 189 135 59 232 166 203 193 234 249 53 88 65 53 260 78 201 236 188 167 142 145 166
221 225 225 224 221 225 222 223 222 216 214 212 209 214 201 172 234 311 214 218 213 189 205 201 150 131 97 238 222 251 239 254 115 124 152 184 57 255 223 217 40 81 148 151 175
220 223 224 220 220 219 221 220 221 218 216 210 218 214 177 192 226 297 204 208 201 181 197 194 189 177 183 195 240 227 258 255 103 152 112 122 191 310 277 252 118 111 141 156 178
218 219 220 219 220 217 217 216 220 225 219 218 216 203 181 226 205 217 194 190 189 192 194 203 201 205 213 203 180 201 228 148 152 166 176 231 210 146 186 240 124 132 150 156 179
216 216 218 219 217 216 214 215 220 219 221 220 214 191 191 211 221 213 191 201 189 199 196 200 199 155 312 172 360 53 208 117 165 220 226 227 255 200 257 102 164 178 164 161 178
209 214 216 215 214 213 212 213 216 217 217 218 213 185 222 220 211 189 182 194 201 202 208 202 178 98 5 20 40 208 230 172 201 204 189 174 248 278 217 152 211 188 193 162 175
210 215 216 218 213 213 212 210 211 215 218 208 208 234 258 199 206 197 176 176 194 200 210 197 156 149 150 143 134 249 183 215 216 200 164 197 304 232 241 161 219 219 188 166 170
212 212 210 213 211 212 214 206 201 199 201 198 203 255 182 195 198 187 188 164 167 193 118 141 182 179 187 185 203 153 208 203 217 188 202 210 230 280 199 171 209 253 212 167 181
207 207 202 204 207 207 197 171 168 191 190 199 188 197 127 197 188 194 174 167 160 171 178 187 186 202 188 192 232 189 181 187 231 181 161 228 248 241 232 200 198 235 262 193 179
206 205 198 202 199 198 188 194 189 128 200 211 217 209 226 191 183 188 174 157 158 182 186 162 217 193 194 194 221 256 197 209 282 121 147 268 263 238 223 237 210 201 219 236 189
205 201 195 196 188 180 191 200 187 176 205 197 210 209 177 166 204 186 183 156 179 178 198 199 194 196 210 195 199 217 199 209 208 134 208 279 272 234 246 227 228 230 196 202 217
187 186 183 177 171 189 211 205 212 204 230 192 198 221 194 325 226 178 188 164 176 189 195 215 213 194 201 203 193 202 150 70 93 102 209 11 289 270 235 227 221 222 209 210 210
170 168 171 180 167 180 195 196 192 153 235 179 186 178 195 192 140 188 190 195 170 170 167 178 198 188 196 196 184 174 140 110 72 84 32 200 272 270 224 267 251 217 214 210 209
166 167 166 182 168 185 194 173 161 213 213 189 155 176 170 204 208 162 184 230 176 162 172 132 289 183 189 183 173 130 95 59 45 53 257 198 219 245 213 229 239 224 208 217 213
168 171 173 170 191 177 165 159 200 227 164 198 185 171 180 192 198 171 182 169 172 156 153 136 157 113 182 162 141 140 153 109 177 204 239 139 213 240 275 282 276 276 280 261 206
167 174 182 180 138 172 156 204 218 225 184 195 189 176 187 183 202 184 176 180 186 166 142 154 187 187 175 170 176 167 176 162 176 193 205 242 236 250 221 219 228 242 255 250 339
161 169 174 198 176 159 150 221 221 232 160 191 189 166 168 180 172 174 173 180 176 167 161 171 144 174 155 138 149 182 188 36 97 101 64 202 248 288 232 241 232 240 242 254 228
151 156 184 181 177 136 165 226 216 226 278 209 183 181 165 190 181 169 174 190 171 189 151 146 114 243 125 127 282 181 147 133 259 153 217 243 231 226 194 221 225 243 206 213 153
140 141 174 171 149 155 213 221 215 247 202 270 190 178 157 174 185 167 169 181 180 187 158 147 113 182 152 201 165 157 186 192 131 200 177 116 255 253 200 178 160 102 82 87 87
139 163 158 149 155 203 204 207 216 238 228 265 303 180 162 182 180 170 180 181 183 179 170 104 107 148 158 342 179 186 172 168 169 208 238 125 259 122 97 88 102 102 94 89 97
134 145 157 180 192 187 226 226 236 209 221 215 271 209 172 184 170 189 174 152 177 177 161 157 143 127 106 348 210 204 178 198 102 78 199 145 260 173 105 98 80 126 115 135 163
132 149 161 231 193 193 188 219 227 233 236 228 242 250 164 182 188 191 160 173 175 177 124 109 158 162 192 200 122 188 191 191 170 154 157 221 179 121 145 155 158 163 185 223 235
153 197 184 180 202 206 202 229 226 236 212 188 249 224 171 166 166 178 136 159 184 146 143 124 132 178 164 160 167 179 183 183 197 218 188 229 225 223 190 198 153 172 214 273 303
146 171 151 157 133 199 223 219 235 218 217 233 220 190 185 154 177 158 158 163 178 170 165 159 136 115 2 162 165 184 184 191 201 214 224 241 270 195 165 141 160 257 285 283 278
101 128 177 167 171 188 213 219 227 198 223 232 211 205 185 182 173 164 123 126 169 172 171 140 128 119 156 79 88 326 199 199 209 206 216 210 225 120 126 144 184 243 242 246 271